Starlink 3099

operational
NORAD ID: 49446 Int'l Des: 2021-104 Owner: SPXS Country: US Constellation: starlink
LEOCIRCULAR

About Starlink 3099

Description loading...

Live Position

Loading 3D Globe...

Upcoming Passes

Altitude History

Altitude vs Time

uPlot chart will show altitude changes over time

Two-Line Element Set

1 49446U 21104AQ 25306.49603382 -.00003310 00000-0 -18995-3 0 9990
2 49446 53.2183 60.1146 0001295 93.2002 266.9138 15.08845120219711
Epoch: Nov 2, 2025 • Age: 32 hours

Current Status

Altitude 541.5 km
Velocity 7.60 km/s
Sub-Earth Point 33.33°N, 101.73°E
Launch Date Nov 13, 2021
Age 3.9 years
Type internet

Technical Details

Classification Payload
Mass 290.00 kg
Dry Mass 270.00 kg
Total Mass 290.00 kg
Length 0.20 m
Diameter 2.80 m
Span 9.00 m
Shape Box + pan
Manufacturer SPXS
Bus Type Starlink
Phase Status In Orbit
Owner/State SPXS/US

Large Constellations

Loading constellations...